Buffalo, WY

9:08 AM MDT on May 22, 2015 (GMT -0600)
Esponda Ranch | | Change Station
CLOSE
Current Station
Personal Weather Station
Location: Buffalo, WY
Elevation: 4665 ft
Nearby Weather Stations

Elev 4665 ft 44.32 °N, 106.67 °W | Updated 2 minutes ago

Rain
Rain
54.2 °F
Feels Like 54.2 °F
N
11.0
Wind Variable Wind from ESE
Gusts 15.0 mph

Today
High -- | Low -- °F
--% Chance of Precip.
Yesterday
High -- | Low -- °F
Precip. -- in
5:33 AM 8:34 PM
Waxing Crescent, 22% visible
Pressure 29.92 in
Visibility -9999.0 miles
Clouds
Dew Point 48 °F
Humidity 81%
Rainfall 0.00 in
Snow Depth Not available.
UV Not available.
Pollen 7.80 out of 12
Air Quality Not available.
Flu Activity Sporadic
METAR KBYG 221453Z AUTO 15012KT 12/08 A2999 RMK AO2 SLP130 T01170078 55000 $

More Conditions Fewer Conditions

Pressure 29.92 in
Visibility -9999.0 miles
Clouds
Dew Point 48 °F
Humidity 81%
Rainfall 0.00 in
Snow Depth Not available.
UV Not available.
Pollen 7.80 out of 12
Air Quality Not available.
Flu Activity Sporadic
METAR KBYG 221453Z AUTO 15012KT 12/08 A2999 RMK AO2 SLP130 T01170078 55000 $

More Conditions Fewer Conditions

10-Day Weather Forecast

Almanac

Astronomy

May. 22, 2015 Rise Set
Actual Time
Civil Twilight
Nautical Twilight
Astronomical Twilight
Moon
Length of Visible Light
Length of Day
Tomorrow will be .
, % of the Moon is Illuminated

Today's Extremes

State Highs State Lows

Community

WunderPhotos

Upload Photos

1,823,236 photos uploaded!

WunderBlogs® & News

Nearby

Air Quality

  Air Quality AQ Index Pollutant
Not available.

Snow Depth

Station Depth Elevation

Earthquake Activity

City Distance Mag. Time & Date
Minimum magnitude displayed is 2.5.

Coastal Water Temperatures

Place Temperature

Stations

Nearby Weather Stations

Station Location Temp. Windchill Dew Point Humidity Wind Precip. Elev Updated Type